Regional Weather Roundup
Issued by NWS Goodland, KS

Home | Current Version | Previous Version | Graphics & Text | Print | Product List | Glossary On
Versions: 1 2 3 4 5 6 7 8 9 10 11 12 13 14 15 16 17 18 19 20 21 22 23 24 25 26 27 28 29 30 31 32 33 34 35 36 37 38 39 40 41 42 43 44 45 46 47 48 49 50
000
ASUS43 KGLD 222359
RWRGLD

GOODLAND FORECAST AREA HOURLY WEATHER ROUNDUP
NATIONAL WEATHER SERVICE GOODLAND KS
600 PM MDT SAT JUL 22 2017

...OFFICIAL OBSERVATIONS...

CITY           SKY/WX    TMP DP  RH WIND       PRES   REMARKS
GOODLAND KS    CLOUDY    83  53  35 N12       30.05R
HILL CITY KS   LGT RAIN  76  69  79 S7        30.00R
IMPERIAL NEB   SUNNY     88  42  20 SE12      30.03F
MCCOOK NEB     CLOUDY    84  57  39 E7        29.99S
AKRON CO       SUNNY     82  46  28 SE13      30.12F
BURLINGTON CO  CLOUDY    83  50  31 E9        30.09R
LIMON CO       SUNNY     79  57  46 E9        30.17F
$$

...UNOFFICIAL OBSERVATIONS...

CITY           SKY/WX    TMP DP  RH WIND       PRES   REMARKS
LENORA KS        N/A     82  32  16 MISG        N/A
NORTON KS      CLOUDY    82  59  44 N9        29.98S
SHARON SPRINGS   N/A     85  53  32 NE20        N/A
TRENTON NEB      N/A     86  32  14 E5          N/A
KIT CARSON CO    N/A     84  56  37 MISG        N/A
YUMA CO        FAIR      77  54  44 E3        30.09S
$$




USA.gov is the U.S. government's official web portal to all federal, state and local government web resources and services.